AirNav   SIMCOM
 
 250 users online  

50TS TJ-CJ Private Heliport
San Antonio, Texas, USA

GOING TO SAN ANTONIO?


FAA INFORMATION EFFECTIVE 09 NOVEMBER 2017

Location

FAA Identifier: 50TS
Lat/Long: 29-27-38.8360N / 098-19-50.0470W
29-27.647267N / 098-19.834117W
29.4607878 / -98.3305686
(estimated)
Elevation: 630 ft. / 192 m (estimated)
Variation: 08E (1980)
From city: 3 miles W of SAN ANTONIO, TX
Time zone: UTC -6 (UTC -5 during Daylight Saving Time)
Zip code: 78109

Heliport Operations

Heliport use: Private use. Permission required prior to landing
Activation date: 11/1986
Control tower: no
ARTCC: HOUSTON CENTER
FSS: SAN ANGELO FLIGHT SERVICE STATION
Attendance: DAYLIGHT HOURS
Wind indicator: yes
Segmented circle: no

Heliport Communications

WX ASOS at SAT (8 nm NW): PHONE 210-805-5583
WX ASOS at SSF (10 nm SW): PHONE 210-927-9391

Nearby radio navigation aids

VOR radial/distance  VOR name  Freq  Var
RNDr209/4.2RANDOLPH VORTAC112.3005E
SATr140/12.9SAN ANTONIO VORTAC116.8008E
SSFr017/(13.5)STINSON VOR108.4009E

 
NDB name  Hdg/Dist  Freq  Var  ID
DEVINE052/37.335907EHHH .... .... ....

Heliport Services

Fuel available: 100LL

Runway Information

Helipad H1

Dimensions: 900 x 250 ft. / 274 x 76 m
Surface: concrete/turf
Traffic pattern: leftleft

Heliport Ownership and Management from official FAA records

Ownership: Privately-owned
Owner: TIMOTHY ELGENE JOHNSON
8059 IH 10 EAST
CONVERSE, TX 78109
Phone 210-384-2837
Manager: TIMOTHY E JOHNSON
8059 IH 10 EAST
SAN ANTONIO, TX 78109
Phone 210-384-2837

Heliport Operational Statistics

Aircraft based on the field: 1
Helicopters: 1
    

Instrument Procedures

There are no published instrument procedures at 50TS.

Some nearby airports with instrument procedures:

KRND - Randolph Air Force Base (5 nm NE)
KSAT - San Antonio International Airport (8 nm NW)
KSSF - Stinson Municipal Airport (10 nm SW)
KSKF - Kelly Field Airport (14 nm W)
KBAZ - New Braunfels Regional Airport (21 nm NE)
 
Loc | Ops | Rwys | IFR | FBO | Links
Com | Nav | Svcs | Stats | Notes


 
Area around 50TS (TJ-CJ Private Heliport)
 
Road maps at: MapQuest Bing Google
 
Aerial photo
No photo
 
Sectional chart

 
Airport distance calculator
Flying to TJ-CJ Private Heliport? Find the distance to fly.

From to 50TS

Sunrise and sunset
Times for 24-Nov-2017
 Local
(UTC-6)
 Zulu
(UTC)
Morning civil twilight06:4012:40
Sunrise07:0613:06
Sunset17:3423:34
Evening civil twilight18:0024:00

Current date and time
Zulu (UTC)  24-Nov-2017 10:46:35
Local (UTC-6)  24-Nov-2017 04:46:35
 
METAR
KRND 
5nm NE 
240956Z AUTO 33004KT 10SM CLR 05/01 A3003 RMK AO2 SLP168 T00470008
KSAT 
8nm NW 
240951Z 31004KT 10SM CLR 06/01 A3004 RMK AO2 SLP160 T00560006
KSSF 
10nm SW 
240953Z AUTO 00000KT 8SM CLR 06/03 A3003 RMK AO2 SLP167 T00560028 $
KSKF 
14nm SW 
240956Z AUTO 34003KT 10SM CLR 04/01 A3001 RMK AO2 SLP161 T00430012 $
TAF
KSAT 
8nm NW 
240530Z 2406/2512 30004KT P6SM FEW250 FM241700 19008KT P6SM FEW250 FM250600 20004KT P6SM FEW250
KSSF 
10nm SW 
240530Z 2406/2506 00000KT P6SM FEW250 FM241700 19007KT P6SM FEW250
KSKF 
14nm SW 
241000Z 2410/2516 VRB06KT 9999 FEW250 QNH2994INS BECMG 2417/2418 18009KT 9999 FEW250 QNH2990INS TX24/2420Z TN04/2411Z
NOTAMs
Click for the latest NOTAMs
NOTAMs are issued by the DoD/FAA and will open in a separate window not controlled by AirNav.

 

 
 

Would you like to see your business listed on this page?

 If your business provides an interesting product or service to pilots, flight crews, aircraft, or users of the TJ-CJ Private Heliport, you should consider listing it here.  To start the listing process, click on the button below
 
Add a business
 

Other Pages about TJ-CJ Private Heliport

Update a link
 
Copyright © AirNav, LLC. All rights reserved. Privacy Policy  Contact